Location: Unspecified
(0.0000°N, 0.0000°E)
Time: 23:48:34
(UTC+00:00)

Vanguard 2 Rocket - All Passes

Search period start: 28 May 2022 00:00
Search period end: 07 June 2022 00:00
Orbit: 553 x 3323 km, 32.9° (Epoch: 28 May)

Date Brightness Start Highest point End Pass type
(mag) Time Alt. Az. Time Alt. Az. Time Alt. Az.
28 May - 05:22:43 10° S 05:27:54 14° SSE 05:34:17 10° ESE visible
28 May - 07:32:05 10° SW 07:44:38 50° SE 08:03:10 10° ENE daylight
28 May - 09:45:59 10° WSW 10:02:35 74° NW 10:23:03 10° NE daylight
28 May - 12:05:52 10° W 12:22:44 34° NNW 12:38:37 10° NNE daylight
28 May - 14:35:48 10° NW 14:44:45 15° NNW 14:52:20 10° NNE daylight
28 May - 17:03:42 10° N 17:06:17 11° N 17:08:37 10° NNE daylight
28 May - 19:17:39 10° NNW 19:23:56 23° NNE 19:28:18 10° ENE visible
28 May - 21:32:20 10° WNW 21:37:50 58° SW 21:41:49 10° SE visible
29 May - 06:32:46 10° SSW 06:42:56 34° SE 06:58:09 10° E daylight
29 May - 08:45:04 10° SW 08:59:50 88° SE 09:20:31 10° NE daylight
29 May - 11:02:11 10° W 11:19:16 44° NNW 11:37:29 10° NE daylight
29 May - 13:28:08 10° WNW 13:41:00 20° NNW 13:52:06 10° NNE daylight
29 May - 15:59:00 10° NNW 16:03:36 12° N 16:07:35 10° NNE daylight
29 May - 18:16:25 10° NNW 18:22:51 18° NNE 18:27:32 10° ENE visible
29 May - 20:31:06 10° NW 20:38:05 69° NNE 20:42:31 10° ESE visible
29 May - 22:49:57 10° SW 22:50:39 10° SW 22:51:20 10° SSW night (unlit)
30 May - 05:34:11 10° S 05:41:34 21° SE 05:51:53 10° E visible
30 May - 07:44:52 10° SW 07:57:35 68° SE 08:17:10 10° ENE daylight
30 May - 09:59:48 10° WSW 10:15:58 56° NNW 10:35:46 10° NE daylight
30 May - 12:21:55 10° WNW 12:37:06 26° NNW 12:51:19 10° NNE daylight
30 May - 14:52:32 10° NNW 15:00:13 14° N 15:06:44 10° NNE daylight
30 May - 17:14:30 10° NNW 17:21:12 16° NNE 17:26:17 10° NE daylight
30 May - 19:29:48 10° NW 19:37:53 41° NNE 19:42:50 10° E visible
30 May - 21:46:27 10° W 21:50:55 25° SW 21:54:24 10° SSE visible
31 May - 04:37:58 10° SSE 04:40:22 11° SE 04:43:02 10° SE visible
31 May - 06:45:15 10° SSW 06:55:56 48° SE 07:12:59 10° ENE daylight
31 May - 08:58:27 10° WSW 09:13:01 72° NW 09:33:28 10° NE daylight
31 May - 11:17:20 10° W 11:33:17 33° NNW 11:50:04 10° NNE daylight
31 May - 13:45:22 10° NW 13:56:18 17° NNW 14:05:44 10° NNE daylight
31 May - 16:11:33 10° NNW 16:18:50 15° N 16:24:37 10° NE daylight
31 May - 18:28:14 10° NNW 18:37:07 30° NNE 18:42:44 10° E visible
31 May - 20:44:25 10° WNW 20:51:20 56° SW 20:55:45 10° SE visible
01 Jun - 05:46:16 10° SSW 05:54:46 31° SE 06:07:53 10° E daylight
01 Jun - 07:57:55 10° SW 08:10:36 89° SE 08:30:32 10° NE daylight
01 Jun - 10:14:14 10° W 10:29:43 42° NNW 10:48:21 10° NE daylight
01 Jun - 12:38:41 10° WNW 12:52:05 21° NNW 13:04:27 10° NNE daylight
01 Jun - 15:07:16 10° NNW 15:15:44 15° N 15:22:40 10° NNE daylight
01 Jun - 17:26:15 10° NNW 17:35:46 24° NNE 17:42:07 10° ENE daylight
01 Jun - 19:42:33 10° NW 19:51:26 78° NE 19:56:35 10° ESE visible
01 Jun - 22:02:21 10° WSW 22:04:00 11° SW 22:05:30 10° SSW visible
02 Jun - 04:48:12 10° S 04:53:54 18° SE 05:01:40 10° ESE visible
02 Jun - 06:58:02 10° SW 07:08:50 68° SE 07:26:58 10° ENE daylight
02 Jun - 09:12:19 10° WSW 09:26:32 54° NNW 09:46:08 10° NE daylight
02 Jun - 11:33:18 10° WNW 11:47:52 26° NNW 12:02:52 10° NNE daylight
02 Jun - 14:01:42 10° NW 14:11:55 16° N 14:20:36 10° NNE daylight
02 Jun - 16:23:43 10° NNW 16:33:46 21° NNE 16:40:55 10° ENE daylight
02 Jun - 18:40:34 10° NW 18:51:01 50° NNE 18:57:00 10° ESE visible
02 Jun - 20:58:34 10° W 21:04:18 27° SW 21:08:20 10° SSE visible
03 Jun - 05:58:42 10° SSW 06:07:40 46° SE 06:22:43 10° ENE daylight
03 Jun - 08:11:21 10° WSW 08:23:52 69° NNW 08:43:26 10° NE daylight
03 Jun - 10:29:22 10° W 10:43:56 32° NNW 11:00:56 10° NNE daylight
03 Jun - 12:55:34 10° NW 13:07:34 18° N 13:18:28 10° NNE daylight
03 Jun - 15:20:28 10° NNW 15:31:01 19° N 15:39:04 10° NE daylight
03 Jun - 17:38:22 10° NW 17:49:59 37° NNE 17:56:57 10° E daylight
03 Jun - 19:55:55 10° WNW 20:04:37 56° SW 20:09:45 10° SE visible
04 Jun - 05:00:02 10° SSW 05:07:01 28° SE 05:17:47 10° E visible
04 Jun - 07:11:07 10° SW 07:21:52 88° NW 07:40:17 10° NE daylight
04 Jun - 09:26:47 10° W 09:40:26 40° NNW 09:58:40 10° NE daylight
04 Jun - 11:49:52 10° NW 12:03:03 21° NNW 12:16:12 10° NNE daylight
04 Jun - 14:16:22 10° NNW 14:27:31 18° N 14:36:37 10° NE daylight
04 Jun - 16:35:52 10° NW 16:48:18 30° NNE 16:56:18 10° ENE daylight
04 Jun - 18:53:23 10° NW 19:04:31 85° NE 19:10:38 10° ESE visible
04 Jun - 21:14:08 10° WSW 21:17:16 14° SW 21:19:53 10° S visible
05 Jun - 04:02:32 10° S 04:06:34 15° SE 04:11:41 10° ESE visible
05 Jun - 06:11:29 10° SW 06:20:33 67° SE 06:36:41 10° ENE daylight
05 Jun - 08:25:17 10° W 08:37:30 50° NNW 08:56:03 10° NE daylight
05 Jun - 10:45:17 10° WNW 10:58:42 25° NNW 11:13:48 10° NNE daylight
05 Jun - 13:11:32 10° NW 13:23:18 18° N 13:33:42 10° NE daylight
05 Jun - 15:33:00 10° NNW 15:45:56 25° NNE 15:55:00 10° ENE daylight
05 Jun - 17:50:49 10° NW 18:03:50 59° NNE 18:11:01 10° ESE daylight
05 Jun - 20:10:04 10° W 20:17:31 30° SW 20:22:21 10° SSE visible
06 Jun - 05:12:24 10° SSW 05:19:52 43° SE 05:32:37 10° ENE visible
06 Jun - 07:24:37 10° WSW 07:35:13 64° NNW 07:53:08 10° NE daylight
06 Jun - 09:41:58 10° WNW 09:54:50 30° NNW 10:11:14 10° NNE daylight
06 Jun - 12:06:26 10° NW 12:18:40 19° N 12:30:32 10° NNE daylight
06 Jun - 14:29:44 10° NNW 14:42:49 22° NNE 14:52:52 10° ENE daylight
06 Jun - 16:48:09 10° NW 17:02:28 44° NNE 17:10:54 10° E daylight
06 Jun - 19:06:48 10° WNW 19:17:37 57° SW 19:23:43 10° SE visible
